Regional Weather Roundup
Issued by NWS

Home | Current Version | Previous Version | Text Only | Print | Product List | Glossary Off
Versions: 1 2 3 4 5 6 7 8 9 10 11 12 13 14 15 16 17 18 19 20 21 22 23 24 25 26 27 28 29 30 31 32 33 34 35 36 37 38 39 40 41 42 43 44 45 46 47 48 49 50

000
ASUS45 KTFX 010304
RWRMT
MONTANA HOURLY WEATHER ROUNDUP
NATIONAL WEATHER SERVICE GREAT FALLS MT
804 PM MST SAT FEB 28 2015

NOTE: "FAIR" INDICATES FEW OR NO CLOUDS BELOW 12000 FEET WITH NO
SIGNIFICANT WEATHER AND/OR OBSTRUCTIONS TO VISIBILITY.

* THESE STATIONS ARE NOT UNDER NWS QUALITY CONTROL. THEY DO NOT
   REPORT WEATHER SUCH AS PRECIPITATION OR FOG.

MTZ001>007-043-010400-
WEST OF THE DIVIDE
CITY           SKY/WX    TMP DP  RH WIND       PRES   REMARKS
KALISPELL      CLEAR     25   7  46 CALM      30.16R
MISSOULA       CLEAR     27   9  46 VRB3      30.15R
BUTTE          FAIR      16   7  67 CALM      30.06R
MULLAN PASS    CLEAR     16  -2  45 SE7       30.02R WCI   6
* ANACONDA     CLEAR     14   3  61 SW3        N/A
* ESSEX        N/A       19   6  57 SW3        N/A
* LINCOLN      N/A       16  -1  47 NE4G11     N/A
* LOOKOUT PASS N/A       21   2  43 E1         N/A
* POLSON       N/A       22  -2  34 N/A        N/A
* RONAN APT    CLEAR     28  14  56 N/A        N/A
* SEELEY LAKE  N/A       16   3  56 NE1        N/A
* THOMP F APT  CLEAR     18   5  57 NW10G19    N/A   WCI   6
$$

MTZ008-052>055-010400-
SOUTHWEST MONTANA
CITY           SKY/WX    TMP DP  RH WIND       PRES   REMARKS
BOZEMAN        PTCLDY    19   9  65 W8        30.12R WCI   9
DILLON         PTCLDY    16   5  62 NE8       30.05R WCI   5
* W YELLOWSTON CLEAR     15   3  59 N2G8       N/A
* THREE FORKS  CLEAR     19   3  49 N/A        N/A
* BOULDER HILL N/A        6  -7  55 N/A        N/A
* MONIDA PASS  N/A       13   6  73 W9         N/A   WCI   1
* RAYNOLDS PAS N/A        7 -39   9 VRB14G19    N/A   WCI -10
* WHITEHALL    N/A       20   3  47 NE9G17     N/A   WCI  10
* WISE RIVER   N/A       17   2  51 SE10G17    N/A   WCI   5
$$

MTZ009>010-012-014-046-048-049-054-010400-
EAST SLOPES AND CENTRAL MONTANA
CITY           SKY/WX    TMP DP  RH WIND       PRES   REMARKS
CUT BANK       CLEAR     12   7  80 NW9       30.15R
GREAT FALLS    CLEAR     14   9  80 SW10      30.16R WCI   1
HELENA         CLEAR     18  -2  41 SW7       30.18R WCI   9
* DEARBORN     N/A       15   6  67 N/A        N/A
* EAST GLACIER N/A       13   4  67 W2         N/A
* MONARCH      N/A        5  -2  72 S8         N/A   WCI  -8
* PENDROY      N/A       15   5  64 NW9        N/A   WCI   3
* ROGERS PASS  N/A        4  -1  79 NW2        N/A
* SWEET GRASS  N/A       17  12  81 NW14       N/A   WCI   3
$$

MTZ011-013-016-021-035-040-045-047-050-051-010400-
NORTH CENTRAL MONTANA
CITY           SKY/WX    TMP DP  RH WIND       PRES   REMARKS
HAVRE          CLOUDY    23  12  63 SW9       30.16F WCI  13
LEWISTOWN      CLEAR      9   1  70 SW13      30.13R WCI  -7
* N BAR RANCH  CLEAR      9  -2  61 W6        30.10R WCI  -1
* CHESTER      N/A       22   8  55 NW7G13     N/A   WCI  13
* DENTON       N/A       12   3  67 SW9        N/A
* GEYSER       N/A       14   3  61 W17        N/A   WCI  -2
* JUDITH GAP   N/A        5   1  83 N/A        N/A
* LOMA         N/A       19  10  68 SW6        N/A   WCI  11
$$

MTZ017>020-022>027-061-062-010400-
NORTHEAST MONTANA
CITY           SKY/WX    TMP DP  RH WIND       PRES   REMARKS
GLASGOW        MOCLDY    19  10  68 W10       30.14S WCI   8
GLENDIVE       CLEAR      9   3  76 W7        30.15F WCI  -2
JORDAN         PTCLDY    14  10  84 W5        30.15S WCI   6
SIDNEY         CLEAR     12   5  73 SW8       30.18S
WOLF POINT     MOCLDY    19   9  65 W8        30.15F WCI   9
* BEAVER HILL  N/A       11   3  70 W4         N/A
* CIRCLE       N/A       13   6  73 N/A        N/A
* LINDSAY DVD  N/A        9   2  73 W7         N/A   WCI  -2
* NAVAJO       N/A       12   5  73 W10        N/A   WCI  -1
* SACO         N/A       21  10  62 SW11       N/A   WCI   9
$$

MTZ028>042-056>058-010400-
SOUTHCENTRAL AND SOUTHEAST MONTANA
CITY           SKY/WX    TMP DP  RH WIND       PRES   REMARKS
BAKER          CLEAR     10   3  73 W9        30.13S WCI  -3
BILLINGS       FAIR      19   9  65 NE3       30.12R
LIVINGSTON     PTCLDY    18   5  57 NW10      30.09R WCI   6
MILES CITY     CLEAR     16   9  74 W5        30.17R WCI   8
* LAUREL APT   CLEAR     19   3  49 NW5        N/A   WCI  12
* ROUNDUP APT  CLEAR     16   1  51 N/A        N/A
* ALZADA       N/A       16   9  74 W5         N/A   WCI   8
* HYSHAM       N/A       16   9  74 NW3G9      N/A
* LAME DEER    N/A        9   5  84 SW4        N/A
* REED POINT   N/A       20   8  59 N2         N/A
* ROSCOE HILL  N/A       12   0  58 S6         N/A   WCI   2
$$

REGIONAL REPORTS...DAKOTAS
CITY           SKY/WX    TMP DP  RH WIND       PRES   REMARKS
WILLISTON      CLEAR      1  -4  79 VRB3      30.15S
DICKINSON      PTCLDY     5   0  80 W6        30.11S WCI  -6
BEACH          CLEAR      7   3  83 W6        30.14S WCI  -4
CROSBY         CLEAR      1  -2  87 SW12      30.12F WCI -16
WATFORD CITY   CLEAR      0  -4  83 SW9       30.12F WCI -15
BISMARCK       PTCLDY    10   3  73 NW6       30.20S
GRAND FORKS    MOCLDY     9   3  76 W8        30.16S WCI  -3
FARGO          CLOUDY    16   7  67 NW16      30.19R WCI   1
BUFFALO SD     PTCLDY    10   5  80 W8        30.07R WCI  -2
RAPID CITY     CLOUDY    16   9  74 N12       30.15R WCI   3
$$

REGIONAL REPORTS...WYOMING/IDAHO/WASHINGTON
CITY           SKY/WX    TMP DP  RH WIND       PRES   REMARKS
GILLETTE       PTCLDY    10   7  88 W3        30.09R
SHERIDAN       PTCLDY    12   5  73 CALM      30.13R
CODY           MOCLDY    14   9  80 N3        30.05R
YELLOWSTONE LA PTCLDY    12   1  61 CALM      29.90R
SALMON         MOCLDY    28  12  51 N9        30.02R WCI  19
MULLAN PASS    CLEAR     16  -2  45 SE7       30.02S WCI   6
SAND POINT     CLEAR     30  10  43 CALM      30.16R
SPOKANE        CLEAR     36   3  25 N3        30.14R
$$

REGIONAL REPORTS...SASKATCHEWAN
CITY           SKY/WX    TMP DP  RH WIND       PRES   REMARKS
SWIFT CURRENT  LGT SNOW  14  12  92 W13       30.06F

$$




USA.gov is the U.S. government's official web portal to all federal, state and local government web resources and services.